Total_Precipitation_Accumulation
0.86 0.69 0.63 0.34 0.13 0.25 0.36 0.08 0.03 0.04 0.01 0.01 0.01 0.00 0.00 0.00 0.00 0.00 0.00 0.00 0.00 0.00 0.00 0.00 0.00 0.00 0.00 0.00 0.00 0.00 0.00 0.00 0.01 0.01 0.01 0.01 0.02 0.01 0.03 0.02 0.04 0.06 0.03 0.03 0.02 0.03 0.02 0.04 0.03 0.02 0.02 0.03 0.02 0.03 0.07 0.02 0.01 0.00 0.00 0.00 0.00 0.00 0.00 0.00 0.00 0.00 0.00 0.00 0.00 0.00 0.00 0.00 0.00 0.00 0.00 0.00 0.00 0.00 0.00 0.00 0.00 0.00 0.00 0.00 0.00
0.59 0.90 0.46 0.48 0.14 0.20 0.16 0.38 0.09 0.00 0.00 0.00 0.00 0.00 0.00 0.00 0.00 0.00 0.00 0.00 0.00 0.00 0.00 0.00 0.00 0.00 0.00 0.00 0.00 0.00 0.01 0.00 0.00 0.01 0.03 0.01 0.02 0.02 0.03 0.03 0.04 0.03 0.03 0.10 0.03 0.01 0.02 0.04 0.01 0.01 0.02 0.01 0.02 0.02 0.00 0.01 0.00 0.00 0.00 0.00 0.00 0.00 0.00 0.00 0.00 0.00 0.00 0.00 0.00 0.00 0.00 0.00 0.00 0.00 0.00 0.00 0.00 0.00 0.00 0.00 0.00 0.00 0.00 0.00 0.00
1.84 0.88 0.69 0.31 0.32 0.28 0.21 0.22 0.12 0.03 0.01 0.00 0.00 0.00 0.00 0.00 0.00 0.00 0.00 0.00 0.00 0.00 0.00 0.00 0.00 0.00 0.00 0.00 0.00 0.00 0.00 0.01 0.01 0.01 0.02 0.03 0.04 0.02 0.02 0.05 0.02 0.01 0.02 0.01 0.03 0.02 0.03 0.02 0.01 0.01 0.02 0.04 0.01 0.01 0.00 0.01 0.00 0.00 0.00 0.00 0.00 0.00 0.00 0.00 0.00 0.00 0.00 0.00 0.00 0.00 0.00 0.00 0.00 0.00 0.00 0.00 0.00 0.00 0.00 0.00 0.00 0.00 0.00 0.00 0.00
1.09 1.10 1.47 1.07 0.38 0.38 0.37 0.23 0.10 0.09 0.00 0.00 0.01 0.00 0.00 0.01 0.00 0.00 0.00 0.00 0.00 0.00 0.02 0.00 0.00 0.00 0.00 0.00 0.00 0.00 0.00 0.00 0.00 0.01 0.01 0.05 0.05 0.06 0.04 0.02 0.01 0.01 0.01 0.00 0.00 0.02 0.05 0.10 0.03 0.01 0.02 0.02 0.03 0.00 0.00 0.00 0.00 0.00 0.00 0.00 0.00 0.00 0.00 0.00 0.00 0.00 0.00 0.00 0.00 0.00 0.00 0.00 0.00 0.00 0.00 0.00 0.00 0.00 0.00 0.00 0.00 0.00 0.00 0.00 0.00
1.06 1.45 1.52 1.29 0.96 0.62 0.59 0.58 0.14 0.14 0.13 0.03 0.00 0.00 0.01 0.01 0.00 0.01 0.00 0.00 0.01 0.00 0.00 0.00 0.00 0.00 0.00 0.00 0.00 0.00 0.00 0.00 0.00 0.00 0.00 0.00 0.02 0.01 0.01 0.01 0.00 0.00 0.00 0.00 0.00 0.00 0.02 0.04 0.08 0.03 0.03 0.02 0.02 0.00 0.00 0.00 0.00 0.00 0.00 0.00 0.00 0.00 0.00 0.00 0.00 0.00 0.00 0.00 0.00 0.00 0.00 0.00 0.00 0.00 0.00 0.00 0.00 0.00 0.00 0.00 0.00 0.00 0.00 0.00 0.00
1.55 1.08 1.26 1.74 1.54 1.26 0.94 1.09 0.87 0.41 0.18 0.27 0.36 0.28 0.11 0.14 0.15 0.08 0.04 0.00 0.00 0.00 0.00 0.00 0.00 0.00 0.00 0.00 0.01 0.00 0.00 0.00 0.01 0.00 0.00 0.01 0.00 0.01 0.00 0.00 0.00 0.00 0.00 0.00 0.00 0.00 0.00 0.00 0.06 0.05 0.31 0.06 0.10 0.01 0.00 0.00 0.00 0.00 0.00 0.00 0.00 0.00 0.00 0.00 0.00 0.00 0.00 0.00 0.00 0.00 0.00 0.00 0.00 0.00 0.00 0.00 0.00 0.00 0.00 0.00 0.00 0.00 0.00 0.00 0.00
1.05 1.07 1.21 1.33 1.71 1.24 0.88 0.63 0.81 0.45 0.58 0.31 0.28 0.25 0.27 0.20 0.14 0.13 0.18 0.10 0.04 0.02 0.02 0.04 0.04 0.06 0.07 0.08 0.10 0.09 0.08 0.04 0.04 0.02 0.03 0.00 0.00 0.00 0.00 0.00 0.01 0.01 0.00 0.00 0.00 0.00 0.00 0.00 0.01 0.11 0.14 0.07 0.05 0.04 0.03 0.01 0.00 0.00 0.00 0.00 0.00 0.00 0.00 0.00 0.00 0.00 0.00 0.00 0.00 0.00 0.00 0.00 0.00 0.00 0.00 0.00 0.00 0.00 0.00 0.00 0.00 0.00 0.00 0.00 0.00
1.28 1.46 1.56 1.52 1.15 1.31 1.63 1.09 1.05 0.55 0.63 0.56 0.59 0.52 0.43 0.35 0.78 0.70 0.68 0.29 0.41 0.45 0.55 0.25 0.47 0.21 0.21 0.28 0.20 0.26 0.17 0.17 0.18 0.04 0.02 0.03 0.03 0.02 0.01 0.01 0.00 0.00 0.00 0.00 0.01 0.00 0.00 0.01 0.00 0.00 0.01 0.02 0.02 0.04 0.01 0.01 0.01 0.00 0.01 0.00 0.00 0.00 0.00 0.00 0.00 0.00 0.00 0.00 0.00 0.00 0.00 0.00 0.00 0.00 0.00 0.00 0.00 0.00 0.00 0.00 0.00 0.00 0.00 0.00 0.00
2.37 1.25 1.10 1.65 1.89 2.21 2.15 1.78 1.32 0.80 0.87 0.60 0.69 0.74 0.49 0.52 0.66 1.11 0.73 0.65 0.51 0.47 0.51 0.43 0.31 0.50 0.41 0.43 0.27 0.20 0.22 0.19 0.14 0.16 0.14 0.04 0.04 0.02 0.01 0.00 0.00 0.00 0.00 0.01 0.01 0.03 0.12 0.11 0.03 0.06 0.03 0.00 0.00 0.00 0.01 0.00 0.00 0.02 0.02 0.01 0.00 0.00 0.00 0.00 0.00 0.00 0.00 0.00 0.01 0.00 0.00 0.00 0.00 0.00 0.00 0.00 0.00 0.00 0.00 0.00 0.00 0.00 0.00 0.00 0.00
0.87 1.04 1.43 1.13 1.35 1.43 1.53 1.38 1.19 0.93 0.62 0.45 0.23 0.24 0.26 0.32 0.29 0.34 0.21 0.28 0.33 0.41 0.52 0.49 0.38 0.37 0.29 0.28 0.26 0.26 0.31 0.26 0.22 0.22 0.20 0.21 0.11 0.15 0.07 0.05 0.02 0.00 0.01 0.03 0.09 0.25 0.43 0.21 0.05 0.00 0.00 0.00 0.00 0.00 0.00 0.00 0.00 0.00 0.01 0.01 0.01 0.00 0.00 0.00 0.00 0.00 0.00 0.01 0.00 0.00 0.00 0.00 0.00 0.00 0.00 0.00 0.00 0.00 0.00 0.00 0.00 0.00 0.00 0.00 0.00
1.94 1.86 1.86 0.92 0.73 0.68 0.86 0.84 0.99 0.89 0.50 0.26 0.26 0.20 0.13 0.10 0.11 0.12 0.41 0.29 0.26 0.43 0.16 0.08 0.13 0.11 0.08 0.06 0.07 0.09 0.10 0.06 0.05 0.04 0.03 0.02 0.03 0.03 0.08 0.15 0.12 0.04 0.02 0.06 0.03 0.15 0.54 0.42 0.27 0.23 0.03 0.02 0.01 0.00 0.00 0.00 0.00 0.00 0.00 0.00 0.00 0.00 0.02 0.00 0.00 0.00 0.00 0.00 0.00 0.00 0.00 0.01 0.00 0.00 0.00 0.00 0.00 0.00 0.01 0.00 0.00 0.00 0.00 0.00 0.00
1.71 1.39 0.86 0.91 1.54 1.22 1.14 1.06 1.12 1.26 0.80 0.51 1.10 0.28 0.14 0.24 0.23 0.22 0.25 0.13 0.14 0.16 0.16 0.20 0.11 0.11 0.07 0.06 0.04 0.04 0.01 0.01 0.01 0.00 0.00 0.00 0.00 0.02 0.01 0.02 0.02 0.02 0.02 0.02 0.09 0.10 0.17 0.15 0.26 0.13 0.05 0.05 0.03 0.01 0.00 0.00 0.00 0.00 0.00 0.00 0.00 0.00 0.00 0.02 0.00 0.00 0.01 0.00 0.01 0.01 0.00 0.00 0.01 0.00 0.01 0.00 0.00 0.00 0.00 0.00 0.01 0.01 0.01 0.01 0.00
1.82 1.32 1.31 1.05 1.06 1.28 0.58 0.63 1.19 0.90 0.93 0.58 0.50 1.45 0.93 0.31 0.32 0.12 0.08 0.06 0.07 0.02 0.07 0.11 0.16 0.19 0.10 0.05 0.03 0.03 0.05 0.03 0.04 0.02 0.01 0.01 0.01 0.01 0.01 0.02 0.00 0.00 0.00 0.05 0.06 0.00 0.05 0.12 0.02 0.02 0.06 0.01 0.02 0.01 0.00 0.00 0.00 0.00 0.01 0.00 0.00 0.00 0.00 0.00 0.01 0.02 0.00 0.01 0.01 0.00 0.01 0.00 0.01 0.01 0.00 0.00 0.00 0.00 0.00 0.01 0.00 0.00 0.01 0.02 0.01
1.10 1.04 1.08 0.83 0.92 0.84 0.99 1.38 0.77 0.83 0.61 0.29 0.29 0.28 0.29 0.34 0.52 0.19 0.11 0.09 0.06 0.06 0.04 0.05 0.03 0.05 0.10 0.09 0.05 0.10 0.57 0.24 0.05 0.01 0.02 0.03 0.04 0.04 0.03 0.02 0.01 0.02 0.03 0.06 0.03 0.01 0.06 0.02 0.06 0.05 0.06 0.00 0.00 0.01 0.01 0.02 0.01 0.00 0.01 0.00 0.00 0.00 0.00 0.00 0.00 0.00 0.00 0.00 0.00 0.00 0.00 0.01 0.01 0.00 0.02 0.01 0.00 0.00 0.00 0.01 0.00 0.00 0.00 0.01 0.00
0.78 0.68 0.80 1.32 0.98 0.57 0.79 0.68 0.84 0.92 0.88 0.63 0.40 0.52 0.28 0.19 0.21 0.26 0.27 0.21 0.22 0.21 0.18 0.11 0.07 0.07 0.10 0.04 0.14 0.51 0.77 0.01 0.02 0.01 0.01 0.01 0.01 0.01 0.03 0.02 0.08 0.07 0.08 0.02 0.10 0.02 0.15 0.03 0.04 0.04 0.01 0.02 0.00 0.00 0.00 0.00 0.00 0.00 0.00 0.00 0.00 0.00 0.00 0.00 0.00 0.00 0.00 0.00 0.00 0.00 0.00 0.00 0.01 0.02 0.07 0.03 0.04 0.02 0.01 0.01 0.01 0.01 0.01 0.01 0.00
0.61 0.62 0.72 0.67 0.84 0.84 0.94 0.59 0.80 1.03 0.50 0.63 0.71 0.85 0.57 0.67 0.61 0.50 0.41 0.23 0.20 0.10 0.21 0.23 0.15 0.13 0.12 0.28 0.10 0.05 0.25 0.03 0.02 0.01 0.00 0.02 0.01 0.02 0.02 0.05 0.09 0.05 0.10 0.11 0.01 0.00 0.01 0.02 0.02 0.02 0.04 0.00 0.00 0.00 0.00 0.00 0.00 0.00 0.00 0.00 0.00 0.01 0.02 0.00 0.00 0.00 0.00 0.00 0.05 0.01 0.09 0.01 0.00 0.00 0.00 0.19 0.02 0.00 0.00 0.01 0.01 0.02 0.00 0.02 0.02
0.75 0.96 0.78 0.51 0.54 0.60 0.86 0.57 1.43 0.91 1.13 0.52 0.43 1.06 0.59 0.54 0.35 0.20 0.27 0.22 0.19 0.17 0.19 0.18 0.18 0.22 0.65 0.15 0.07 0.29 0.20 0.03 0.00 0.00 0.00 0.00 0.04 0.03 0.01 0.06 0.04 0.03 0.07 0.09 0.17 0.03 0.03 0.08 0.01 0.01 0.24 0.10 0.07 0.00 0.01 0.00 0.08 0.03 0.01 0.00 0.00 0.01 0.13 0.03 0.01 0.00 0.00 0.00 0.01 0.00 0.00 0.01 0.02 0.02 0.00 0.06 0.67 0.11 0.21 0.22 0.16 0.12 0.12 0.19 0.28
0.47 0.56 0.61 0.67 0.76 0.56 0.56 0.84 0.35 0.73 0.74 0.66 0.38 0.44 0.60 0.38 0.35 0.34 0.22 0.35 0.40 0.40 0.43 0.50 0.42 0.36 0.33 0.29 0.27 0.32 0.24 0.14 0.02 0.00 0.00 0.00 0.23 0.15 0.17 0.24 0.19 0.07 0.14 0.14 0.09 0.09 0.13 0.02 0.02 0.07 0.16 0.20 0.04 0.08 0.60 0.95 0.42 0.18 0.32 0.04 0.05 0.07 0.15 0.01 0.14 0.71 0.10 0.04 0.05 0.00 0.03 0.06 0.01 0.01 0.01 0.01 0.01 0.10 0.35 0.09 0.04 0.17 0.15 0.27 0.05
0.80 0.76 0.53 0.56 0.48 0.43 0.40 0.46 0.37 0.25 0.46 0.47 0.45 0.30 0.27 0.27 0.29 0.41 0.20 0.18 0.16 0.20 0.11 0.06 0.10 0.15 0.12 0.10 0.07 0.11 0.20 0.12 0.05 0.01 0.02 0.00 0.08 0.09 0.16 0.05 0.17 0.17 0.08 0.08 0.07 0.11 0.19 0.10 0.09 0.04 0.05 0.43 0.24 0.36 0.07 0.02 0.59 0.39 0.25 0.16 0.27 0.11 0.60 0.52 0.77 0.74 0.50 0.37 0.18 0.10 0.05 0.02 0.06 0.03 0.01 0.02 0.01 0.00 0.00 0.03 0.03 0.05 0.12 0.05 0.09
0.30 0.54 0.63 0.50 0.39 0.35 0.28 0.34 0.45 0.56 1.03 1.46 1.50 0.92 0.29 0.38 0.49 0.18 0.22 0.29 0.21 0.25 0.08 0.06 0.11 0.14 0.10 0.16 0.13 0.19 0.14 0.21 0.12 0.06 0.01 0.01 0.01 0.09 0.07 0.09 0.11 0.32 0.19 0.24 0.04 0.01 0.16 0.46 0.34 0.06 0.06 0.09 0.21 0.17 0.33 0.57 0.98 0.59 0.47 0.76 0.51 0.61 0.32 0.36 0.55 0.47 0.32 0.32 0.10 0.02 0.01 0.04 0.01 0.02 0.00 0.04 0.02 0.01 0.00 0.02 0.04 0.08 0.07 0.08 0.20
0.23 0.24 0.27 0.27 0.33 0.33 0.41 0.23 0.17 0.18 0.15 0.15 0.11 0.25 0.81 0.99 0.93 0.61 0.61 0.41 0.21 0.28 0.34 0.46 0.13 0.09 0.07 0.12 0.08 0.09 0.05 0.16 0.26 0.05 0.05 0.03 0.01 0.04 0.17 0.13 0.20 0.56 0.26 0.15 0.30 0.18 0.31 0.10 0.30 0.08 0.23 0.13 0.21 0.45 0.55 0.23 0.29 0.26 0.18 0.09 0.19 0.86 0.15 0.10 0.17 0.04 0.09 0.03 0.01 0.02 0.02 0.01 0.02 0.01 0.00 0.00 0.01 0.00 0.00 0.00 0.01 0.01 0.01 0.03 0.03
0.08 0.11 0.14 0.15 0.17 0.19 0.19 0.18 0.17 0.15 0.17 0.14 0.10 0.07 0.05 0.03 0.04 0.14 0.18 0.28 0.41 0.72 0.91 0.62 0.90 0.42 0.19 0.08 0.11 0.31 0.31 0.03 0.24 0.34 0.12 0.19 0.11 0.35 0.56 0.23 0.18 0.15 0.27 0.28 0.16 0.15 0.17 0.17 0.22 0.12 0.12 0.02 0.03 0.04 0.03 0.03 0.33 1.47 0.56 0.17 0.33 0.08 0.21 0.12 0.36 0.33 0.03 0.02 0.01 0.03 0.03 0.08 0.01 0.04 0.06 0.04 0.01 0.01 0.01 0.01 0.00 0.01 0.01 0.08 0.17
0.02 0.02 0.02 0.04 0.07 0.11 0.07 0.08 0.10 0.09 0.07 0.09 0.10 0.10 0.04 0.02 0.02 0.01 0.01 0.00 0.00 0.00 0.02 0.05 0.04 0.07 0.14 0.15 0.25 0.23 0.30 0.17 0.02 0.12 0.17 0.29 0.37 0.34 0.34 0.29 0.19 0.41 0.15 0.49 0.14 0.08 0.23 0.24 0.23 0.20 0.23 0.13 0.19 0.20 0.28 0.27 0.32 0.52 0.20 0.08 0.03 0.02 0.27 0.11 0.03 0.00 0.02 0.01 0.01 0.01 0.01 0.01 0.01 0.01 0.02 0.10 0.13 0.11 0.05 0.02 0.03 0.12 0.04 0.04 0.09
0.00 0.00 0.00 0.00 0.00 0.00 0.00 0.01 0.00 0.01 0.01 0.02 0.02 0.01 0.04 0.03 0.01 0.00 0.00 0.00 0.00 0.00 0.00 0.00 0.01 0.01 0.02 0.05 0.04 0.09 0.07 0.01 0.01 0.01 0.01 0.07 0.13 0.10 0.10 0.18 0.18 0.21 0.15 0.37 0.25 0.36 0.20 0.17 0.13 0.01 0.07 0.09 0.11 0.16 0.13 0.04 0.05 0.04 0.10 0.16 0.17 0.16 0.07 0.03 0.04 0.02 0.00 0.05 0.10 0.02 0.01 0.00 0.01 0.00 0.00 0.00 0.01 0.02 0.19 0.02 0.01 0.01 0.01 0.03 0.00
0.01 0.13 0.01 0.00 0.00 0.00 0.00 0.00 0.00 0.00 0.01 0.00 0.00 0.01 0.01 0.00 0.00 0.00 0.01 0.00 0.00 0.00 0.00 0.01 0.02 0.01 0.05 0.01 0.01 0.00 0.01 0.02 0.00 0.00 0.00 0.00 0.01 0.03 0.07 0.16 0.12 0.10 0.31 0.20 0.07 0.40 0.26 0.16 0.22 0.24 0.17 0.25 0.12 0.18 0.20 0.26 0.14 0.08 0.10 0.11 0.18 0.24 0.18 0.08 0.05 0.05 0.01 0.01 0.00 0.01 0.00 0.00 0.03 0.01 0.01 0.01 0.01 0.00 0.03 0.00 0.01 0.01 0.02 0.02 0.00
0.00 0.00 0.00 0.00 0.02 0.15 0.16 0.01 0.03 0.00 0.01 0.00 0.00 0.00 0.00 0.02 0.03 0.05 0.02 0.01 0.01 0.01 0.00 0.01 0.02 0.04 0.08 0.04 0.01 0.02 0.01 0.04 0.00 0.01 0.00 0.00 0.01 0.00 0.02 0.03 0.01 0.04 0.05 0.08 0.08 0.04 0.02 0.02 0.01 0.01 0.02 0.01 0.02 0.01 0.02 0.01 0.02 0.01 0.01 0.07 0.06 0.07 0.08 0.06 0.09 0.05 0.06 0.03 0.02 0.04 0.02 0.01 0.01 0.02 0.01 0.02 0.09 0.02 0.02 0.11 0.02 0.16 0.15 0.34 0.33
0.00 0.00 0.00 0.00 0.01 0.09 0.01 0.10 0.39 0.34 0.04 0.29 0.03 0.09 0.00 0.01 0.00 0.00 0.00 0.02 0.02 0.01 0.00 0.01 0.05 0.07 0.11 0.05 0.19 0.44 0.15 0.34 0.10 0.29 0.64 0.50 0.16 0.19 0.20 0.18 0.08 0.09 0.14 0.11 0.01 0.03 0.01 0.10 0.05 0.03 0.22 0.04 0.17 0.11 0.23 0.02 0.02 0.01 0.01 0.09 0.03 0.04 0.02 0.00 0.04 0.09 0.09 0.07 0.12 0.17 0.28 0.07 0.17 0.08 0.34 0.09 0.04 0.03 0.00 0.04 0.04 0.11 0.05 0.07 0.11
0.00 0.00 0.00 0.00 0.00 0.00 0.00 0.00 0.01 0.06 0.07 0.07 0.11 0.60 0.14 0.18 0.15 0.02 0.24 0.10 0.30 0.28 0.18 0.16 0.23 0.31 0.38 0.29 0.45 0.23 0.29 0.17 0.12 0.15 0.07 0.11 0.26 0.35 0.87 0.45 0.55 0.33 0.46 0.21 0.22 0.30 0.22 0.27 0.14 0.26 0.21 0.27 0.12 0.04 0.01 0.01 0.00 0.01 0.03 0.03 0.05 0.01 0.12 0.08 0.14 0.14 0.13 0.32 0.29 0.09 0.14 0.03 0.07 0.02 0.09 0.01 0.01 0.08 0.04 0.07 0.04 0.02 0.07 0.06 0.04
0.00 0.00 0.00 0.00 0.00 0.00 0.00 0.00 0.01 0.01 0.01 0.01 0.37 0.04 0.24 0.20 0.15 0.09 0.10 0.13 0.11 0.13 0.49 0.30 0.35 0.13 0.16 0.16 0.31 0.26 0.29 0.36 0.10 0.09 0.30 0.05 0.26 0.26 0.16 0.19 0.10 0.15 0.05 0.18 0.38 0.71 0.61 0.42 0.19 0.13 0.09 0.14 0.13 0.10 0.21 0.16 0.14 0.11 0.05 0.08 0.12 0.19 0.06 0.10 0.11 0.17 0.11 0.07 0.06 0.08 0.10 0.11 0.09 0.14 0.12 0.05 0.16 0.12 0.16 0.07 0.23 0.07 0.02 0.15 0.07
0.00 0.00 0.00 0.00 0.01 0.00 0.00 0.00 0.00 0.00 0.00 0.00 0.00 0.01 0.05 0.09 0.18 0.37 0.46 0.14 0.02 0.08 0.07 0.28 0.13 0.18 0.10 0.04 0.06 0.10 0.17 0.08 0.04 0.09 0.14 0.07 0.06 0.12 0.20 0.31 0.28 0.31 0.16 0.15 0.40 0.33 0.14 0.08 0.29 0.23 0.17 0.15 0.08 0.12 0.19 0.15 0.07 0.17 0.20 0.15 0.12 0.12 0.15 0.12 0.15 0.15 0.15 0.27 0.18 0.13 0.12 0.13 0.09 0.07 0.10 0.05 0.12 0.08 0.08 0.07 0.17 0.12 0.18 0.12 0.08
0.00 0.00 0.00 0.00 0.00 0.00 0.00 0.01 0.08 0.01 0.00 0.00 0.01 0.01 0.01 0.18 0.01 0.01 0.06 0.27 0.24 0.44 0.16 0.13 0.21 0.27 0.22 0.19 0.22 0.06 0.05 0.03 0.01 0.02 0.12 0.41 0.30 0.18 0.27 0.22 0.17 0.29 0.66 0.82 0.53 0.33 0.19 0.22 0.21 0.14 0.08 0.04 0.07 0.14 0.15 0.12 0.09 0.12 0.14 0.05 0.17 0.10 0.08 0.07 0.11 0.19 0.29 0.27 0.29 0.26 0.21 0.16 0.20 0.17 0.16 0.11 0.13 0.06 0.03 0.03 0.07 0.10 0.06 0.04 0.05
0.01 0.00 0.00 0.00 0.00 0.00 0.00 0.00 0.00 0.01 0.01 0.02 0.02 0.22 0.01 0.10 0.01 0.00 0.01 0.04 0.05 0.02 0.04 0.25 0.36 0.42 0.21 0.42 0.33 0.64 0.39 0.08 0.04 0.03 0.05 0.11 0.09 0.19 0.09 0.14 0.30 0.49 0.36 0.85 0.55 0.35 0.38 0.30 0.24 0.25 0.17 0.21 0.15 0.07 0.04 0.01 0.02 0.04 0.01 0.01 0.05 0.05 0.05 0.06 0.02 0.02 0.04 0.03 0.06 0.09 0.09 0.05 0.08 0.13 0.06 0.03 0.08 0.18 0.07 0.12 0.17 0.18 0.15 0.11 0.05
0.01 0.01 0.01 0.01 0.00 0.00 0.00 0.00 0.01 0.01 0.02 0.03 0.05 0.01 0.14 0.02 0.06 0.27 0.19 0.03 0.02 0.02 0.01 0.01 0.02 0.22 0.34 0.26 0.13 0.21 0.32 0.26 0.35 0.84 0.61 0.30 0.27 0.27 0.19 0.16 0.26 0.32 0.40 0.22 0.15 0.20 0.29 0.39 0.28 0.18 0.17 0.30 0.22 0.19 0.11 0.08 0.06 0.03 0.02 0.03 0.01 0.02 0.04 0.06 0.03 0.05 0.03 0.02 0.02 0.06 0.04 0.02 0.02 0.05 0.08 0.04 0.07 0.23 0.16 0.08 0.06 0.08 0.09 0.11 0.11
0.01 0.01 0.01 0.01 0.01 0.00 0.00 0.00 0.01 0.02 0.02 0.03 0.03 0.03 0.03 0.18 0.36 0.08 0.39 0.07 0.28 0.11 0.00 0.00 0.00 0.00 0.02 0.11 0.16 0.16 0.09 0.09 0.32 0.21 0.18 0.23 0.35 0.52 0.45 0.90 0.36 0.24 0.25 0.33 0.43 0.37 0.15 0.38 0.15 0.10 0.13 0.07 0.06 0.11 0.08 0.11 0.15 0.13 0.14 0.17 0.15 0.16 0.13 0.07 0.12 0.26 0.24 0.08 0.04 0.03 0.04 0.05 0.04 0.05 0.06 0.07 0.09 0.06 0.06 0.06 0.09 0.14 0.09 0.07 0.11
0.01 0.01 0.01 0.01 0.01 0.01 0.01 0.01 0.01 0.00 0.01 0.03 0.03 0.04 0.03 0.05 0.12 0.09 0.11 0.25 0.25 0.24 0.26 0.76 0.44 0.22 0.20 0.17 0.05 0.15 0.29 0.14 0.10 0.14 0.22 0.24 0.23 0.28 0.19 0.41 0.33 0.20 0.31 0.31 0.26 0.37 0.36 0.32 0.52 0.22 0.03 0.04 0.04 0.04 0.04 0.06 0.10 0.11 0.09 0.15 0.14 0.26 0.40 0.43 0.53 0.38 0.21 0.21 0.22 0.18 0.19 0.08 0.09 0.08 0.08 0.10 0.10 0.09 0.07 0.08 0.09 0.07 0.10 0.09 0.09
0.03 0.02 0.02 0.02 0.02 0.03 0.02 0.02 0.02 0.02 0.02 0.03 0.02 0.03 0.05 0.03 0.05 0.02 0.19 0.06 0.10 0.16 0.13 0.33 0.43 0.37 0.35 0.47 0.42 0.51 0.43 0.70 0.26 0.09 0.12 0.13 0.20 0.26 0.34 0.32 0.23 0.29 0.25 0.24 0.27 0.31 0.20 0.25 0.18 0.16 0.11 0.05 0.04 0.05 0.04 0.04 0.07 0.06 0.05 0.04 0.05 0.06 0.08 0.07 0.08 0.14 0.28 0.46 0.48 0.32 0.31 0.24 0.19 0.27 0.17 0.18 0.16 0.11 0.09 0.09 0.08 0.10 0.10 0.12 0.11
0.05 0.04 0.05 0.04 0.05 0.05 0.03 0.03 0.03 0.02 0.02 0.17 0.01 0.01 0.02 0.06 0.16 0.24 0.08 0.09 0.07 0.20 0.22 0.07 0.03 0.19 0.18 0.40 0.13 0.15 0.16 0.27 0.37 0.51 0.28 0.24 0.33 0.34 0.36 0.30 0.54 0.41 0.27 0.22 0.22 0.21 0.23 0.30 0.14 0.13 0.10 0.08 0.11 0.03 0.03 0.06 0.03 0.04 0.02 0.03 0.04 0.05 0.05 0.06 0.06 0.06 0.06 0.07 0.09 0.13 0.18 0.21 0.18 0.23 0.23 0.22 0.17 0.13 0.16 0.17 0.15 0.14 0.13 0.15 0.15
0.07 0.07 0.06 0.06 0.08 0.10 0.09 0.05 0.03 0.03 0.10 0.05 0.04 0.29 0.06 0.05 0.08 0.03 0.04 0.31 0.06 0.10 0.56 0.15 0.06 0.10 0.08 0.11 0.09 0.31 0.27 0.09 0.05 0.06 0.17 0.36 0.77 0.47 0.21 0.14 0.28 0.35 0.42 0.31 0.17 0.20 0.20 0.19 0.21 0.23 0.16 0.08 0.06 0.06 0.04 0.06 0.04 0.05 0.05 0.04 0.06 0.06 0.06 0.09 0.09 0.10 0.09 0.09 0.09 0.12 0.13 0.16 0.16 0.18 0.21 0.24 0.26 0.23 0.21 0.18 0.16 0.16 0.16 0.14 0.15
0.10 0.04 0.06 0.07 0.07 0.08 0.10 0.07 0.05 0.03 0.03 0.05 0.02 0.04 0.27 0.02 0.05 0.05 0.05 0.05 0.14 0.34 0.40 0.21 0.15 0.18 0.13 0.08 0.12 0.06 0.30 0.32 0.38 0.07 0.08 0.31 0.42 0.62 0.53 0.29 0.22 0.36 0.32 0.36 0.26 0.22 0.14 0.18 0.09 0.11 0.15 0.15 0.14 0.12 0.13 0.12 0.09 0.06 0.05 0.08 0.07 0.07 0.09 0.09 0.10 0.13 0.16 0.17 0.18 0.18 0.18 0.16 0.15 0.16 0.16 0.19 0.16 0.14 0.15 0.17 0.17 0.19 0.22 0.19 0.14
0.12 0.10 0.10 0.10 0.11 0.08 0.07 0.08 0.07 0.06 0.05 0.04 0.09 0.04 0.10 0.07 0.14 0.17 0.02 0.04 0.08 0.16 0.26 0.48 0.46 0.59 0.44 0.23 0.15 0.27 0.23 0.17 0.28 0.47 0.32 0.16 0.08 0.15 0.42 0.32 0.29 0.43 0.32 0.33 0.30 0.26 0.25 0.13 0.11 0.14 0.15 0.19 0.17 0.15 0.15 0.16 0.18 0.10 0.11 0.12 0.08 0.08 0.08 0.10 0.27 0.17 0.23 0.24 0.27 0.27 0.28 0.33 0.27 0.22 0.20 0.14 0.19 0.20 0.19 0.21 0.17 0.16 0.16 0.15 0.14
0.32 0.34 0.29 0.17 0.13 0.13 0.17 0.16 0.18 0.17 0.09 0.15 0.37 0.32 0.43 0.08 0.14 0.38 0.39 0.12 0.12 0.09 0.10 0.20 0.29 0.49 0.40 0.52 0.15 0.17 0.24 0.08 0.08 0.15 0.26 0.42 0.44 0.52 0.32 0.43 0.32 0.31 0.22 0.20 0.27 0.31 0.30 0.26 0.34 0.29 0.20 0.23 0.22 0.22 0.20 0.21 0.21 0.15 0.14 0.13 0.12 0.12 0.15 0.16 0.16 0.14 0.18 0.19 0.16 0.19 0.20 0.19 0.18 0.20 0.22 0.20 0.18 0.19 0.21 0.21 0.20 0.19 0.19 0.17 0.17
0.33 0.51 0.64 0.48 0.36 0.26 0.21 0.21 0.21 0.25 0.18 0.09 0.10 0.08 0.06 0.17 0.28 0.11 0.37 0.30 0.19 0.28 0.38 0.49 0.47 0.24 0.10 0.30 0.18 0.17 0.17 0.19 0.13 0.14 0.16 0.13 0.11 0.19 0.45 0.34 0.46 0.32 0.28 0.35 0.19 0.17 0.24 0.27 0.26 0.24 0.23 0.28 0.28 0.35 0.27 0.19 0.17 0.17 0.17 0.17 0.15 0.15 0.17 0.18 0.19 0.17 0.18 0.18 0.19 0.21 0.24 0.23 0.23 0.25 0.24 0.21 0.22 0.23 0.23 0.18 0.17 0.17 0.18 0.17 0.16
0.31 0.39 0.56 0.59 0.53 0.39 0.30 0.23 0.22 0.20 0.15 0.14 0.09 0.10 0.05 0.06 0.17 0.48 0.33 0.55 0.40 0.21 0.48 0.56 0.32 0.18 0.34 0.21 0.26 0.29 0.16 0.19 0.09 0.12 0.10 0.12 0.12 0.09 0.12 0.18 0.38 0.26 0.20 0.18 0.19 0.24 0.29 0.33 0.35 0.36 0.29 0.27 0.28 0.27 0.26 0.24 0.24 0.24 0.22 0.25 0.26 0.26 0.26 0.23 0.19 0.19 0.17 0.16 0.15 0.13 0.14 0.17 0.17 0.20 0.18 0.13 0.14 0.15 0.13 0.10 0.08 0.08 0.08 0.09 0.12
0.36 0.43 0.42 0.41 0.32 0.27 0.29 0.30 0.27 0.24 0.22 0.15 0.29 0.15 0.06 0.32 0.06 0.15 0.49 0.35 0.36 0.40 0.33 0.16 0.59 0.39 0.29 0.16 0.15 0.36 0.31 0.25 0.17 0.21 0.17 0.08 0.09 0.11 0.07 0.07 0.30 0.30 0.14 0.10 0.10 0.13 0.15 0.22 0.31 0.34 0.34 0.34 0.35 0.38 0.38 0.37 0.38 0.38 0.38 0.40 0.40 0.33 0.26 0.21 0.21 0.23 0.25 0.24 0.18 0.16 0.14 0.13 0.10 0.09 0.09 0.08 0.09 0.11 0.08 0.05 0.05 0.05 0.06 0.07 0.09
0.31 0.34 0.31 0.24 0.21 0.20 0.18 0.19 0.19 0.22 0.21 0.19 0.14 0.11 0.08 0.06 0.12 0.05 0.08 0.50 0.21 0.16 0.19 0.25 0.41 0.31 0.38 0.25 0.13 0.28 0.33 0.44 0.16 0.20 0.14 0.13 0.09 0.05 0.03 0.06 0.12 0.14 0.10 0.06 0.06 0.09 0.21 0.31 0.41 0.51 0.55 0.59 0.64 0.65 0.56 0.45 0.42 0.41 0.34 0.24 0.19 0.16 0.17 0.18 0.19 0.19 0.20 0.22 0.19 0.14 0.12 0.11 0.11 0.09 0.09 0.07 0.09 0.10 0.06 0.04 0.04 0.05 0.08 0.08 0.09
0.20 0.19 0.15 0.19 0.14 0.15 0.16 0.15 0.13 0.14 0.15 0.13 0.14 0.14 0.10 0.06 0.09 0.10 0.09 0.10 0.20 0.11 0.06 0.08 0.15 0.30 0.41 0.24 0.15 0.15 0.23 0.19 0.30 0.19 0.12 0.09 0.07 0.07 0.03 0.02 0.05 0.09 0.10 0.09 0.06 0.13 0.28 0.44 0.49 0.49 0.48 0.40 0.33 0.23 0.17 0.12 0.09 0.08 0.07 0.08 0.09 0.12 0.16 0.18 0.19 0.18 0.17 0.18 0.14 0.09 0.09 0.08 0.09 0.09 0.10 0.07 0.07 0.08 0.05 0.03 0.04 0.07 0.11 0.12 0.11
0.11 0.15 0.09 0.08 0.09 0.09 0.09 0.11 0.12 0.13 0.14 0.14 0.15 0.15 0.15 0.14 0.08 0.05 0.03 0.07 0.09 0.08 0.06 0.06 0.07 0.24 0.20 0.24 0.48 0.14 0.14 0.20 0.18 0.20 0.16 0.12 0.11 0.09 0.05 0.03 0.02 0.03 0.06 0.13 0.17 0.28 0.39 0.38 0.29 0.21 0.18 0.16 0.14 0.13 0.13 0.14 0.14 0.14 0.14 0.14 0.14 0.14 0.15 0.14 0.12 0.12 0.11 0.07 0.04 0.05 0.05 0.06 0.08 0.08 0.07 0.05 0.04 0.05 0.04 0.06 0.08 0.06 0.09 0.10 0.12
0.08 0.10 0.12 0.11 0.11 0.09 0.11 0.11 0.12 0.11 0.11 0.10 0.10 0.08 0.06 0.06 0.05 0.04 0.04 0.04 0.05 0.03 0.04 0.06 0.05 0.06 0.06 0.07 0.16 0.12 0.08 0.12 0.13 0.19 0.25 0.21 0.15 0.12 0.10 0.08 0.06 0.08 0.09 0.26 0.39 0.42 0.33 0.20 0.10 0.08 0.08 0.08 0.07 0.07 0.06 0.04 0.04 0.04 0.05 0.05 0.06 0.06 0.06 0.06 0.06 0.05 0.04 0.03 0.03 0.04 0.04 0.06 0.08 0.07 0.06 0.04 0.02 0.02 0.03 0.06 0.10 0.06 0.05 0.07 0.05
0.05 0.09 0.10 0.10 0.15 0.12 0.10 0.09 0.09 0.08 0.07 0.06 0.06 0.06 0.04 0.03 0.04 0.03 0.03 0.04 0.05 0.04 0.03 0.04 0.03 0.04 0.04 0.04 0.04 0.05 0.08 0.13 0.18 0.27 0.34 0.24 0.22 0.19 0.15 0.12 0.14 0.05 0.09 0.21 0.24 0.27 0.19 0.07 0.03 0.02 0.01 0.02 0.02 0.02 0.02 0.02 0.01 0.02 0.01 0.01 0.01 0.01 0.01 0.01 0.02 0.02 0.01 0.01 0.02 0.03 0.03 0.04 0.06 0.06 0.03 0.02 0.02 0.01 0.01 0.05 0.07 0.04 0.03 0.06 0.05
0.02 0.04 0.04 0.04 0.07 0.08 0.08 0.08 0.08 0.07 0.07 0.06 0.06 0.05 0.04 0.03 0.04 0.06 0.06 0.05 0.05 0.04 0.05 0.03 0.02 0.04 0.04 0.05 0.06 0.07 0.11 0.18 0.27 0.31 0.27 0.19 0.19 0.20 0.21 0.21 0.18 0.17 0.18 0.20 0.20 0.12 0.04 0.02 0.01 0.01 0.01 0.01 0.01 0.01 0.01 0.00 0.00 0.00 0.00 0.01 0.01 0.01 0.01 0.01 0.01 0.01 0.01 0.01 0.01 0.02 0.02 0.03 0.04 0.04 0.03 0.02 0.02 0.01 0.01 0.02 0.02 0.02 0.02 0.03 0.04
0.01 0.01 0.01 0.01 0.02 0.03 0.03 0.05 0.06 0.08 0.09 0.10 0.09 0.08 0.07 0.08 0.09 0.07 0.08 0.07 0.08 0.07 0.06 0.05 0.03 0.03 0.03 0.03 0.03 0.06 0.12 0.19 0.24 0.24 0.21 0.19 0.16 0.14 0.13 0.10 0.10 0.11 0.10 0.09 0.07 0.02 0.00 0.00 0.00 0.00 0.00 0.00 0.00 0.00 0.00 0.00 0.00 0.00 0.00 0.00 0.00 0.00 0.00 0.01 0.01 0.01 0.01 0.01 0.01 0.01 0.02 0.02 0.03 0.03 0.03 0.03 0.02 0.01 0.01 0.01 0.01 0.01 0.01 0.01 0.02